Weather History for Jask, Iran

Change the Weather History Date:

Monday, February 18, 2013

  Actual Average Record
Temperature  
Mean Temperature 74 °F -  
Max Temperature 78 °F - - ()
Min Temperature 69 °F - - ()
Cooling Degree Days 8    
Growing Degree Days 24 (Base 50)    
Moisture  
Dew Point 65 °F    
Average Humidity 71    
Maximum Humidity 94    
Minimum Humidity 50    
Precipitation  
Precipitation 0.00 in - - ()
Sea Level Pressure  
Sea Level Pressure 29.84 in    
Wind  
Wind Speed 10 mph ()    
Max Wind Speed 21 mph    
Max Gust Speed -    
Visibility 5.3 miles    
Events      
T = Trace of Precipitation, MM = Missing Value Source: Averaged Metar Reports

Daily Weather History Graph

Daily Weather History Graph

Search for Another Location

Airport:

Trip Planner

Search our weather history database for the weather conditions in past years. The results will help you decide how hot, cold, wet, or windy it might be!

Date:

Astronomy

Feb. 18, 2013 Rise Set
Actual Time 6:11 AM IRST 5:34 PM IRST
Civil Twilight 5:48 AM IRST 5:57 PM IRST
Nautical Twilight 5:21 AM IRST 6:24 PM IRST
Astronomical Twilight 4:54 AM IRST 6:51 PM IRST
Moon 11:18 AM IRST (2/18) No Moon Set
Length of Visible Light 12h 09m
Length of Day
11h 22m
First Quarter, 55% of the Moon is Illuminated
Feb 18
First Quarter
Feb 25
Full
Mar 5
Last Quarter
Mar 11
New
Mar 19
First Quarter

Hourly Weather History & Observations

Time (IRST) Temp. Dew Point Humidity Pressure Visibility Wind Dir Wind Speed Gust Speed Precip Events Conditions
12:20 AM 73.4 °F 55.4 °F 53% 29.83 in 4.3 mi NW 13.8 mph - N/A   Clear
12:30 AM 73.4 °F 55.4 °F 53% 29.83 in 4.3 mi NW 13.8 mph - N/A   Clear
5:20 AM 71.6 °F 51.8 °F 50% 29.83 in 4.3 mi NNW 13.8 mph - N/A   Partly Cloudy
6:20 AM 69.8 °F 55.4 °F 60% 29.83 in 6.2 mi Calm Calm - N/A   Scattered Clouds
7:20 AM 71.6 °F 55.4 °F 57% 29.86 in 6.2 mi West 4.6 mph - N/A   Mostly Cloudy
8:20 AM 71.6 °F 64.4 °F 78% 29.86 in 6.2 mi North 6.9 mph - N/A   Scattered Clouds
8:30 AM 71.6 °F 64.4 °F 78% 29.86 in 6.2 mi North 6.9 mph - N/A   Scattered Clouds
9:20 AM 75.2 °F 62.6 °F 65% 29.89 in 6.2 mi West 11.5 mph - N/A   Mostly Cloudy
9:30 AM 76 °F 62 °F 53% 29.91 in 6 mi West 11.2 mph - -   Mostly Cloudy
9:30 AM 75.2 °F 62.6 °F 65% 29.89 in 6.2 mi West 11.5 mph - N/A   Mostly Cloudy
10:20 AM 77.0 °F 59.0 °F 54% 29.89 in 6.2 mi West 9.2 mph - N/A   Partly Cloudy
10:30 AM 77.0 °F 59.0 °F 54% 29.89 in 6.2 mi West 9.2 mph - N/A   Partly Cloudy
11:20 AM 77.0 °F 62.6 °F 61% 29.86 in 6.2 mi WSW 11.5 mph - N/A   Partly Cloudy
11:30 AM 77.0 °F 62.6 °F 61% 29.86 in 6.2 mi WSW 11.5 mph - N/A   Partly Cloudy
12:20 PM 78.8 °F 62.6 °F 57% 29.83 in - WSW 13.8 mph - N/A   Clear
12:30 PM 78.8 °F 62.6 °F 57% 29.83 in - WSW 13.8 mph - N/A   Clear
1:20 PM 77.0 °F 64.4 °F 65% 29.83 in 5.0 mi SW 11.5 mph - N/A   Unknown
1:30 PM 77.0 °F 64.4 °F 65% 29.83 in 5.0 mi SW 11.5 mph - N/A   Unknown
2:20 PM 77.0 °F 66.2 °F 69% 29.80 in 5.0 mi West 18.4 mph - N/A   Unknown
2:30 PM 77.0 °F 66.2 °F 69% 29.80 in 5.0 mi West 18.4 mph - N/A   Unknown
3:20 PM 78.8 °F 68.0 °F 69% 29.80 in 5.0 mi West 20.7 mph - N/A   Unknown
3:30 PM 78 °F 68 °F 64% 29.82 in 5 mi West 20.1 mph - -   Blowing Sand
3:30 PM 78.8 °F 68.0 °F 69% 29.80 in 5.0 mi West 20.7 mph - N/A   Unknown
4:20 PM 75.2 °F 69.8 °F 83% 29.80 in 5.0 mi West 16.1 mph - N/A   Unknown
4:30 PM 75.2 °F 69.8 °F 83% 29.80 in 5.0 mi West 16.1 mph - N/A   Unknown
5:20 PM 75.2 °F 69.8 °F 83% 29.83 in 5.0 mi West 16.1 mph - N/A   Unknown
5:30 PM 75.2 °F 69.8 °F 83% 29.83 in 5.0 mi West 16.1 mph - N/A   Unknown
6:20 PM 73.4 °F 69.8 °F 88% 29.83 in 5.0 mi West 11.5 mph - N/A   Unknown
6:30 PM 73.4 °F 69.8 °F 88% 29.83 in 5.0 mi West 11.5 mph - N/A   Unknown
7:20 PM 75.2 °F 71.6 °F 89% 29.83 in 5.0 mi WSW 9.2 mph - N/A   Unknown
7:30 PM 75.2 °F 71.6 °F 89% 29.83 in 5.0 mi WSW 9.2 mph - N/A   Unknown
8:20 PM 73.4 °F 71.6 °F 94% 29.83 in 5.0 mi WSW 9.2 mph - N/A   Unknown
8:30 PM 73.4 °F 71.6 °F 94% 29.83 in 5.0 mi WSW 9.2 mph - N/A   Unknown
9:20 PM 73.4 °F 69.8 °F 88% 29.86 in 5.0 mi North 4.6 mph - N/A   Unknown
9:30 PM 73 °F 70 °F 86% 29.88 in 5 mi North 4.5 mph - -   Mist
9:30 PM 73.4 °F 69.8 °F 88% 29.86 in 5.0 mi North 4.6 mph - N/A   Unknown